Home   Weather   Niterói   Past weeks

Flag for Brazil Past Weather in Niterói, Rio de Janeiro, Brazil — Yesterday and Last 2 Weeks

Now
88 °F

Passing clouds.


Feels Like: 93 °F
Forecast: 76 / 92 °F
Wind: 15 mph from Southwest

Location: Rio De Janeiro Airport

Current Time: Feb 20, 2017 at 3:38:38 pm

Latest Report: Feb 20, 2017 at 2:00 pm


Visibility: N/A

Pressure: 29.98 "Hg

Humidity: 55%

Dew Point: 70 °F

Location of NiteróiLocation

Past Weather in Niterói — Graph

°F

Niterói Temperature Yesterday

Maximum temperature yesterday: 93 °F (at 2:00 pm)
Minimum temperature yesterday: 75 °F (at 1:00 am)
Average temperature yesterday: 83 °F

High & Low Weather Summary for the Past Weeks

 TemperatureHumidityPressure
High97 °F (Feb 6, 2:00 pm)94% (Feb 8, 3:00 am)30.12 "Hg (Feb 8, 3:00 am)
Low75 °F (Feb 9, 6:00 am)39% (Feb 13, 12:00 pm)29.71 "Hg (Feb 6, 5:00 am)
Average84 °F69%29.91 "Hg
* Reported Feb 5 3:00 pm — Feb 20 2:00 pm, Niterói, Weather by CustomWeather, © 2017

Note: Actual official high and low records may vary slightly from our data, if they occured in-between our weather recording intervals... More about our weather records

Advertising

Niterói Weather History for the Previous 24 Hours

Scroll right to see more
 ConditionsComfort  
Time TempWeatherWind HumidityBarometerVisibility
2:00 pm
Mon, Feb 20
88 °FPassing clouds.15 mph55%29.98 "HgN/A
1:00 pm88 °FPassing clouds.14 mph55%30.01 "HgN/A
12:00 pm88 °FPassing clouds.13 mph55%30.01 "HgN/A
11:00 am90 °FPassing clouds.8 mph55%30.04 "Hg6 mi
10:00 am88 °FClear.8 mph59%30.04 "Hg4 mi
9:00 am88 °FHaze.3 mph62%30.04 "Hg3 mi
8:00 am84 °FSunny.3 mph66%30.04 "Hg10 mi
7:00 am81 °FPassing clouds.3 mph74%30.04 "HgN/A
6:00 am79 °FPartly sunny.2 mph79%30.01 "HgN/A
3:00 am79 °FClear.5 mph84%29.98 "Hg10 mi
2:00 am79 °FClear.7 mph84%29.98 "Hg10 mi
1:00 am75 °FClear.3 mph89%30.01 "Hg10 mi
12:00 am75 °FClear.7 mph83%29.98 "Hg10 mi
11:00 pm
Sun, Feb 19
77 °FClear.6 mph83%29.98 "Hg10 mi
10:00 pm77 °FClear.2 mph83%29.98 "Hg10 mi
9:00 pm79 °FPassing clouds.6 mph79%29.95 "HgN/A
8:00 pm81 °FPassing clouds.7 mph70%29.95 "HgN/A
7:00 pm82 °FPassing clouds.17 mph66%29.92 "HgN/A
6:00 pm84 °FPassing clouds.17 mph62%29.89 "HgN/A
5:00 pm84 °FPassing clouds.16 mph62%29.89 "HgN/A
4:00 pm88 °FPassing clouds.16 mph59%29.89 "HgN/A
3:00 pm90 °FPassing clouds.14 mph55%29.89 "HgN/A
Weather by CustomWeather, © 2017

See weather overviewHow to use our weather pages